Theta_e
325 324 327 328 328 338 340 341 342 343 342 346 345 342 343 342 345 343 342 343 344 343 343 343 343 345 345 345 346 346 345 345 345 338 344 347 349 349 347 346 348 346 348 347
320 322 325 329 330 331 338 342 343 342 342 342 344 346 343 340 345 347 343 342 343 342 342 342 343 344 344 344 345 345 346 344 344 346 342 342 346 344 345 349 349 349 351 346
318 321 324 327 329 329 337 340 343 340 340 339 340 341 345 342 347 347 347 343 342 342 342 342 343 343 343 343 343 344 344 343 344 348 348 342 345 350 350 351 352 349 348 347
319 321 324 326 327 327 326 339 341 343 339 339 338 338 347 343 347 343 344 344 342 342 344 343 342 342 342 342 342 342 342 343 343 349 348 345 348 352 353 350 350 349 350 352
322 323 322 323 324 325 328 338 341 342 338 336 338 337 337 341 344 344 343 345 344 343 344 344 344 343 343 342 341 342 342 341 342 344 345 345 350 352 353 351 351 349 348 350
321 324 321 321 323 324 327 330 333 334 332 336 334 337 337 344 344 342 341 342 346 345 345 346 345 346 346 344 342 345 345 342 342 342 343 345 347 349 349 348 348 346 348 348
320 321 321 323 323 323 325 322 325 329 328 331 329 334 335 340 340 339 341 339 343 346 346 347 347 347 347 344 345 346 348 347 345 343 343 344 349 351 349 347 347 343 347 347
318 320 322 323 323 322 325 322 323 330 329 331 331 333 334 335 335 335 338 340 342 347 347 347 348 348 348 348 347 347 349 351 350 347 345 343 345 348 350 351 348 346 348 346
318 320 322 323 324 322 322 322 320 323 324 326 328 333 332 340 341 340 341 342 342 347 347 347 348 348 348 348 348 349 350 350 351 351 350 347 345 347 347 348 349 345 351 350
319 319 320 321 325 324 322 321 322 318 327 328 330 335 331 342 342 340 341 343 344 347 347 347 348 348 348 349 348 348 349 349 349 350 349 347 345 344 345 350 346 346 350 352
317 318 321 322 322 321 320 320 319 318 320 328 338 334 337 340 338 338 341 342 345 346 347 347 348 348 348 348 348 348 349 350 349 350 349 346 344 344 344 345 346 346 350 353
318 314 318 323 320 320 319 320 317 320 323 324 330 335 338 337 334 338 339 341 342 341 345 347 347 348 348 348 348 348 349 349 349 347 348 347 342 343 343 342 343 344 348 352
320 316 320 323 319 320 324 322 319 317 319 325 332 340 340 343 343 341 339 336 334 336 345 347 347 348 349 349 348 348 349 348 349 348 348 348 348 346 342 343 342 344 352 354
324 319 320 323 322 323 327 324 323 318 322 331 343 345 341 346 344 344 343 341 343 354 353 351 349 350 351 351 349 348 348 348 348 348 348 348 349 342 341 342 344 344 348 353
319 327 327 326 328 330 330 330 327 324 323 338 344 345 341 342 345 347 341 348 343 353 359 356 353 356 357 351 352 353 351 348 348 349 349 350 349 343 341 343 346 346 347 350
320 328 329 330 329 329 337 338 331 344 344 343 340 340 335 339 337 348 354 354 353 352 351 356 352 350 350 356 355 355 354 355 357 354 354 352 352 352 349 350 351 351 352 353
320 325 326 331 331 331 337 339 339 338 342 342 343 338 336 338 337 343 346 346 348 351 346 347 349 346 346 345 347 346 349 354 356 361 361 358 356 356 355 355 355 356 356 355
319 322 325 332 330 335 336 336 338 341 341 340 339 339 337 337 336 334 343 346 348 344 345 345 346 346 347 349 352 355 353 345 349 354 358 359 359 360 359 359 358 357 355 356
319 318 327 333 333 335 337 337 338 338 341 340 339 338 339 337 338 340 344 347 346 342 344 344 346 347 349 350 349 346 351 358 357 356 356 356 358 359 360 360 360 357 355 354
323 318 326 332 337 339 337 336 338 337 341 340 341 340 337 338 342 343 345 345 344 344 340 346 348 348 348 346 344 345 350 360 353 359 359 360 358 357 358 359 359 358 355 354
335 332 331 336 338 335 334 337 339 344 347 340 340 338 336 338 342 345 345 343 343 343 340 339 342 343 343 343 343 347 349 354 350 351 352 354 350 354 354 356 356 351 351 351
334 338 339 339 341 341 339 338 343 343 342 337 335 335 334 341 344 344 344 343 342 340 339 338 338 338 340 341 343 352 353 350 347 344 340 337 341 343 351 353 356 357 354 350
337 335 335 339 341 336 338 340 339 342 340 337 338 340 336 339 341 343 343 343 341 339 338 337 337 338 339 340 341 339 336 337 338 337 338 345 344 340 339 341 346 353 356 354
337 337 335 335 335 335 340 339 338 338 340 341 341 340 340 341 342 343 342 341 340 338 337 337 337 337 337 337 335 336 334 336 333 331 333 338 350 348 340 339 341 351 352 352
337 337 336 337 338 337 334 335 337 338 340 340 340 339 339 341 341 341 340 339 338 336 337 337 337 337 337 338 337 336 336 332 334 337 337 344 349 346 341 341 344 346 343 351
331 336 337 336 336 333 329 328 329 333 335 336 338 339 336 334 332 334 339 339 338 338 338 338 338 338 338 336 337 336 331 338 339 341 343 346 342 341 344 341 338 336 338 349
Wind_Speed
4 5 5 10 7 6 9 3 4 6 9 7 13 17 12 17 17 21 25 33 33 32 28 31 29 31 28 29 28 26 23 18 14 15 23 20 12 10 10 8 4 4 6 4
4 4 11 10 7 5 7 3 3 4 7 7 6 9 7 7 17 21 27 32 36 33 29 33 31 32 30 28 28 27 24 21 18 14 13 18 11 13 12 9 6 4 1 3
8 8 11 7 11 6 6 9 7 4 4 1 2 6 5 3 4 16 18 36 36 36 32 37 34 33 32 30 28 28 25 23 19 16 13 16 18 11 11 12 10 6 2 5
6 12 8 7 9 5 8 13 17 8 4 4 8 4 6 6 8 8 15 32 36 39 36 39 36 36 35 33 29 27 26 25 22 19 16 21 20 15 11 9 10 9 7 4
9 6 9 9 14 7 19 18 19 8 6 5 4 4 5 9 7 16 21 26 37 44 43 43 41 39 36 35 33 28 25 26 23 23 20 21 20 18 15 13 15 14 12 8
8 6 9 11 9 10 4 5 5 6 4 2 7 5 4 10 18 15 25 30 38 42 43 43 42 40 38 38 36 31 28 25 24 22 22 22 20 20 20 18 15 16 14 8
6 7 5 5 4 4 6 6 2 1 1 6 5 2 7 18 13 16 25 32 24 37 40 44 46 44 42 43 39 36 31 27 27 26 24 25 22 21 19 16 10 5 13 8
4 7 6 3 8 8 4 8 6 5 2 4 4 5 6 3 8 26 21 19 29 35 42 44 47 46 44 43 41 38 35 29 27 28 26 25 26 23 21 17 16 13 5 4
5 7 5 4 5 9 5 2 7 6 1 3 4 4 4 6 5 11 23 21 25 38 40 42 45 46 45 42 42 41 37 32 28 24 24 24 27 27 24 19 16 13 11 9
7 4 6 9 6 1 8 5 3 4 4 3 4 4 5 4 4 2 8 20 15 33 35 40 43 45 47 44 39 38 38 33 28 26 23 24 24 27 26 23 20 18 15 13
6 4 11 1 5 10 0 0 5 5 5 5 3 5 14 7 7 8 3 9 16 21 29 34 39 43 42 42 41 38 38 36 32 30 23 23 24 24 26 28 26 22 18 17
10 6 3 5 9 3 7 9 7 5 4 0 4 4 15 6 7 5 4 3 17 16 11 15 20 32 37 38 40 38 37 37 33 29 28 25 23 24 25 26 26 25 22 20
7 1 2 10 7 5 2 5 6 5 4 5 5 3 7 8 17 14 14 19 17 9 5 5 17 20 28 34 38 39 37 35 34 32 30 29 26 25 27 27 25 26 25 23
10 4 6 6 7 4 3 4 3 6 3 3 3 8 6 7 9 15 16 13 1 7 17 23 20 16 10 15 31 35 35 36 36 34 33 30 27 26 27 28 28 27 26 28
6 3 4 6 7 4 2 2 4 5 5 7 14 10 9 6 14 24 16 8 12 4 16 17 17 16 12 9 6 7 23 32 33 36 36 31 25 26 26 27 27 27 29 30
3 3 3 2 3 11 19 18 10 6 8 13 10 3 5 12 14 31 27 19 16 12 16 13 12 9 8 7 6 4 6 10 16 30 31 32 28 26 28 26 26 27 28 30
5 4 3 4 6 7 11 12 7 3 4 18 11 7 14 7 11 26 26 14 15 15 14 11 8 6 5 5 5 4 1 6 11 11 20 30 32 30 31 30 29 29 29 29
5 5 2 1 6 6 7 4 10 10 5 2 5 16 22 7 3 7 17 15 19 15 15 12 8 7 5 4 4 6 7 3 4 10 16 17 20 25 32 35 33 28 27 29
5 6 3 4 3 2 4 1 4 3 4 1 6 10 14 4 5 5 12 17 18 17 11 11 13 9 7 3 6 10 10 6 4 2 4 10 15 19 20 22 26 27 26 29
6 8 5 3 5 2 5 3 9 13 4 12 9 9 12 16 4 5 16 20 20 17 10 12 13 9 4 3 6 8 10 4 6 5 4 5 6 9 17 21 24 26 26 27
4 4 5 3 4 4 7 2 3 9 7 11 15 17 20 7 11 21 27 23 17 17 13 10 8 5 2 3 4 8 10 8 10 11 12 12 13 13 13 14 18 22 24 28
4 4 1 3 4 2 4 6 6 4 16 11 7 10 25 21 20 25 22 22 21 19 16 12 11 9 7 6 5 5 7 11 14 18 19 18 16 17 17 17 17 19 26 27
3 4 5 4 5 2 4 7 15 23 32 26 22 15 22 25 17 28 26 26 21 19 17 16 14 13 10 8 6 8 14 18 20 22 23 22 20 18 20 19 19 18 19 23
2 5 4 3 5 6 11 10 19 18 29 16 20 16 22 25 25 26 27 22 23 23 22 20 17 14 11 8 7 15 15 19 21 25 27 23 24 23 21 18 18 17 20 24
5 2 4 4 5 16 22 19 20 22 17 14 22 23 20 14 17 21 23 21 23 21 17 17 15 12 11 13 16 16 17 19 20 19 20 19 23 26 25 21 20 18 21 23
5 4 4 3 5 16 10 18 21 23 18 16 13 11 13 14 13 10 4 12 14 14 14 14 14 15 14 14 13 14 16 15 18 21 21 21 24 23 23 22 21 20 19 22
Wind_Direction
217 98 190 248 210 149 205 124 192 190 230 161 220 250 208 233 179 189 198 199 208 213 215 208 202 194 188 195 200 206 209 208 206 189 191 188 191 217 230 244 269 331 255 261
30 194 217 232 271 183 195 158 239 250 238 219 236 233 214 237 202 195 197 206 207 207 207 196 198 194 195 195 203 207 209 210 207 207 197 197 188 199 211 233 240 245 267 254
170 229 207 216 261 256 191 161 221 197 71 138 86 321 227 264 285 210 215 212 208 206 199 192 194 197 199 201 201 209 212 212 209 209 204 197 191 208 229 235 222 221 201 259
207 241 214 220 244 194 182 201 190 205 109 207 162 239 252 195 253 274 250 205 208 206 204 198 197 199 204 208 205 211 214 213 216 209 210 189 191 207 221 224 232 239 240 235
235 202 216 223 233 218 257 182 192 179 156 71 291 94 282 119 250 249 238 220 209 208 206 201 200 206 209 209 205 210 214 216 214 216 217 210 209 213 230 236 239 244 246 232
235 246 157 206 228 194 221 129 65 58 80 337 245 163 250 186 219 221 248 222 211 206 206 208 207 208 209 209 205 206 211 212 210 210 214 215 213 220 227 232 248 249 220 224
316 286 280 200 284 2 81 67 29 152 93 218 254 24 220 213 200 196 218 232 220 206 199 204 207 208 209 207 205 210 208 208 212 212 215 217 218 219 226 232 230 233 237 236
184 313 215 207 179 180 149 142 148 196 200 250 19 241 261 107 285 244 230 225 221 208 199 204 207 210 213 211 209 209 210 209 209 213 218 225 225 227 230 235 240 254 238 246
154 273 316 175 185 135 243 144 190 121 95 72 266 296 13 87 24 109 143 166 202 195 195 202 209 209 215 214 212 212 213 213 213 215 216 222 229 231 231 232 239 245 238 252
232 277 239 280 149 200 153 169 39 12 171 207 291 284 221 141 161 261 92 111 129 194 194 196 209 210 215 220 219 218 217 217 216 215 217 221 225 232 236 233 236 238 235 241
162 123 282 112 164 189 352 101 76 122 134 158 188 278 346 167 200 131 116 98 112 149 170 190 210 214 216 219 219 222 219 217 218 219 216 219 222 225 229 233 235 239 238 238
201 160 200 250 275 225 153 188 139 125 248 261 142 316 332 40 352 353 123 50 126 109 126 183 206 209 211 215 219 224 223 219 220 221 221 220 220 222 225 229 232 234 232 235
179 59 31 340 352 9 196 208 141 114 94 222 115 237 324 46 45 37 36 23 332 348 15 151 208 211 216 216 219 224 224 225 223 222 224 227 224 225 228 230 230 228 232 238
114 121 151 195 217 165 286 252 139 124 125 116 122 164 278 92 100 74 74 126 112 342 101 103 113 118 132 217 228 229 230 228 228 226 226 229 231 228 227 227 228 227 231 234
105 159 186 232 231 192 187 257 258 160 191 131 183 169 198 205 131 116 135 256 228 278 99 90 92 98 110 128 144 213 240 246 238 233 229 230 238 238 232 230 230 230 233 236
22 199 181 342 220 63 31 4 84 80 106 94 145 181 223 208 167 123 119 132 147 131 95 93 99 95 96 111 129 175 227 230 234 238 236 235 237 236 236 235 235 236 237 236
116 123 83 292 52 74 36 343 28 125 181 143 173 190 185 240 240 151 147 168 151 140 126 119 130 93 77 76 97 91 101 216 230 231 237 241 240 239 240 239 238 236 236 239
122 98 99 358 31 66 234 258 54 80 53 294 95 155 189 224 276 157 155 165 165 143 153 137 161 140 123 94 62 50 63 38 266 237 236 235 237 242 244 242 242 241 240 242
136 116 77 128 109 129 301 342 71 342 307 329 163 167 196 158 86 197 191 175 161 153 154 159 170 171 150 95 23 355 354 16 26 359 284 259 255 252 245 241 241 242 242 241
63 97 109 88 93 168 234 269 358 98 314 231 188 175 159 147 145 237 189 181 159 151 135 146 150 150 163 60 14 343 328 300 345 341 320 303 288 271 257 252 245 246 245 249
22 5 100 95 114 283 258 257 142 94 240 176 199 179 175 187 190 155 159 159 172 168 178 166 170 180 137 346 318 298 308 308 317 319 313 297 291 285 279 263 264 250 246 254
104 103 66 84 82 245 344 19 77 200 80 95 141 207 206 188 153 165 173 181 179 177 180 193 216 227 223 228 244 255 276 296 306 315 319 313 296 291 285 280 275 262 255 247
37 169 166 152 201 278 349 87 96 102 114 120 145 215 226 205 213 195 189 181 182 188 190 197 208 207 197 196 222 281 298 299 301 301 304 307 309 308 301 285 285 282 263 246
278 220 112 101 23 353 70 104 90 86 98 150 202 206 216 217 202 187 184 188 193 196 195 198 202 207 215 227 265 317 311 313 303 293 289 291 297 302 305 282 279 272 265 260
231 176 140 66 36 71 58 67 75 80 82 83 84 85 73 178 194 190 195 195 190 191 199 208 215 222 245 274 293 309 312 316 316 315 303 292 290 297 298 283 272 262 269 262
309 163 112 189 129 107 79 67 72 74 68 66 74 78 78 72 65 63 97 190 207 216 216 227 242 256 268 280 289 303 316 317 316 311 306 291 292 293 295 289 280 270 259 256